Location: ČR
(50.0000°N, 15.0000°E)
Time: 15:18:36
(UTC+00:00)

Explorer 7 - Pass Details

Date: 28 October 2021
Orbit: 483 x 675 km, 50.3° (Epoch: 27 November)

Event Time Altitude Azimuth Distance (km) Brightness Sun altitude
Rises 19:27:25 0° 241° (WSW) 2,615 10.7 -35.9°
Enters shadow 19:27:44 - 241° (WSW) 2,489 10.6 -36.0°
Reaches altitude 10° 19:29:34 10° 238° (WSW) 1,756 - -36.3°
Maximum altitude 19:33:30 59° 158° (SSE) 630 - -36.8°
Drops below altitude 10° 19:37:41 10° 79° (E) 1,873 - -37.4°
Sets 19:40:03 0° 76° (ENE) 2,809 - -37.8°
